DW3201 Weather Reports


time (UTC)temp
C
wind
direction
speed
KPH
gust
KPH
rain 1hr
cm
rain 24hr
cm
rain mn
cm
humidity
%
barometer
mb
20260904193107 28 0 0.0 3.2 0.00 0.61 0.61 75 1012.5
20260904191602 28 321 0.0 3.2 0.00 0.61 0.61 77 1012.8
20260904184605 27 264 3.2 8.0 0.00 0.64 0.61 76 1012.7
20260904183115 27 276 1.6 4.8 0.00 0.64 0.61 78 1012.7
20260904181610 26 284 1.6 8.0 0.00 0.64 0.61 82 1013.3
20260904180112 25 277 0.0 4.8 0.00 0.64 0.61 86 1013.4
20260904174611 23 273 1.6 4.8 0.00 0.64 0.61 91 1013.7
20260904173124 22 267 0.0 4.8 0.00 0.64 0.61 93 1013.6
20260904171608 21 53 0.0 4.8 0.00 0.64 0.61 93 1013.5
20260904170108 21 129 1.6 9.7 0.00 0.64 0.61 93 1013.2
20260904164615 21 64 1.6 8.0 0.30 1.19 0.61 94 1013.7
20260904163101 21 297 1.6 12.9 0.48 1.19 0.61 93 1014.4
20260904161618 21 56 3.2 8.0 0.48 1.19 0.61 93 1015.0
20260904160059 21 47 3.2 14.5 0.48 1.19 0.61 92 1015.0
20260904154558 21 113 4.8 12.9 0.18 2.31 0.30 89 1016.1
20260904153108 22 101 6.4 9.7 0.00 2.13 0.13 88 1016.8
20260904151601 21 114 8.0 14.5 0.00 2.13 0.13 88 1016.2
20260904150105 21 65 1.6 16.1 0.00 2.13 0.13 88 1016.1
20260904144621 21 107 6.4 9.7 0.00 2.18 0.13 89 1015.7
20260904143104 21 117 9.7 20.9 0.00 2.18 0.13 89 1016.0
20260904141604 21 39 8.0 25.7 0.00 2.18 0.13 90 1016.0
20260904140106 21 34 12.9 22.5 0.00 2.18 0.13 91 1016.1
20260904134608 21 65 8.0 17.7 0.00 2.18 0.13 91 1016.5
20260904133103 21 119 3.2 11.3 0.00 2.18 0.13 91 1016.6
20260904131558 20 82 1.6 19.3 0.00 2.18 0.13 91 1014.9
20260904130058 20 55 8.0 20.9 0.00 2.18 0.13 92 1015.1
20260904124602 20 62 14.5 22.5 0.00 2.18 0.13 93 1015.1
20260904123106 21 86 12.9 25.7 0.00 2.18 0.13 94 1014.5
20260904121558 20 79 8.0 16.1 0.03 2.18 0.13 94 1014.2
20260904120122 20 90 9.7 16.1 0.03 2.18 0.13 94 1014.0
20260904114559 21 358 9.7 14.5 0.03 2.18 0.13 94 1013.4
20260904113102 21 58 8.0 19.3 0.05 2.18 0.13 93 1013.3
20260904111612 21 98 4.8 16.1 0.05 2.16 0.10 93 1012.9
20260904110116 22 60 4.8 16.1 0.10 2.16 0.10 94 1012.9
20260904104600 22 103 9.7 19.3 0.10 2.16 0.10 94 1012.7
20260904103107 22 82 6.4 14.5 0.08 2.13 0.08 95 1012.6
20260904101602 22 71 9.7 12.9 0.05 2.11 0.05 95 1012.7
20260904094615 22 47 1.6 3.2 0.00 2.06 0.00 95 1012.5
20260904093104 22 0 0.0 3.2 0.00 2.06 0.00 95 1012.2
20260904091559 21 0 0.0 3.2 0.00 2.06 0.00 95 1012.3
20260904090101 21 0 0.0 0.0 0.00 2.06 0.00 95 1012.0
20260904084604 21 0 0.0 0.0 0.00 2.06 0.00 94 1012.3
20260904083102 22 0 0.0 1.6 0.00 2.06 0.00 94 1012.5
20260904081642 22 114 1.6 3.2 0.00 2.06 0.00 94 1011.8
20260904080059 22 0 0.0 4.8 0.00 2.06 0.00 94 1012.2
20260904074617 22 0 0.0 3.2 0.00 2.06 0.00 94 1012.6
20260904073107 22 92 0.0 9.7 0.00 2.06 0.00 94 1012.9
20260904071608 22 71 3.2 8.0 0.00 2.06 0.00 94 1013.0
20260904070131 21 70 1.6 6.4 0.00 2.06 0.00 94 1012.7
20260904064606 21 102 1.6 8.0 0.00 2.06 0.00 95 1012.8
20260904063101 21 49 3.2 8.0 0.00 2.06 0.00 94 1012.8
20260904061608 22 55 1.6 6.4 0.00 2.06 0.00 94 1012.9
20260904060106 22 89 3.2 6.4 0.00 2.06 0.00 94 1012.9
20260904054607 22 71 3.2 6.4 0.00 2.06 0.00 94 1013.0
20260904053107 22 82 1.6 8.0 0.00 2.06 0.00 94 1013.3
20260904051608 22 0 0.0 1.6 0.00 2.06 0.00 94 1013.3
20260904050109 22 0 0.0 4.8 0.00 2.06 0.00 93 1013.3
20260904044605 22 44 3.2 8.0 0.00 2.06 2.06 93 1013.7
20260904043122 22 103 1.6 8.0 0.00 2.06 2.06 93 1013.6
20260904041606 22 82 4.8 8.0 0.00 2.06 2.06 92 1013.6
20260904040107 22 83 0.0 4.8 0.00 2.06 2.06 92 1013.5
20260904034605 22 85 3.2 6.4 0.00 2.06 2.06 92 1013.5
20260904033101 22 83 4.8 9.7 0.00 2.06 2.06 92 1013.6
20260904031602 22 72 3.2 4.8 0.00 2.06 2.06 92 1014.0
20260904030059 22 73 0.0 3.2 0.00 2.06 2.06 91 1014.0
20260904024604 22 70 1.6 4.8 0.00 2.06 2.06 91 1013.9
20260904023102 22 47 3.2 9.7 0.00 2.06 2.06 91 1013.8
20260904021602 22 78 1.6 8.0 0.00 2.06 2.06 90 1013.7
20260904020106 22 70 4.8 8.0 0.00 2.06 2.06 90 1013.7
20260904014645 22 0 0.0 0.0 0.00 2.06 2.06 90 1013.6
20260904013103 22 0 0.0 1.6 0.00 2.06 2.06 89 1013.5
20260904011602 23 70 1.6 4.8 0.00 2.06 2.06 88 1013.2
20260904010100 23 64 0.0 4.8 0.00 2.06 2.06 87 1013.0
20260904004605 23 113 3.2 4.8 0.00 2.06 2.06 87 1012.9
20260904003110 23 72 1.6 4.8 0.00 2.06 2.06 86 1012.8
20260904001602 23 50 0.0 6.4 0.00 2.06 2.06 85 1012.8
20260904000140 24 45 3.2 9.7 0.00 2.06 2.06 84 1012.8
20260903234604 25 77 6.4 11.3 0.00 2.06 2.06 85 1012.7
20260903233101 25 88 6.4 11.3 0.00 2.06 2.06 85 1012.5
20260903231618 26 340 14.5 19.3 0.00 2.06 2.06 84 1012.3
20260903230108 27 85 1.6 6.4 0.00 2.06 2.06 81 1012.1
20260903224602 27 79 3.2 4.8 0.00 2.06 2.06 79 1012.3
20260903223108 27 0 0.0 0.0 0.00 2.06 2.06 83 1012.6
20260903221559 27 0 0.0 0.0 0.00 2.06 2.06 81 1012.4
20260903220110 28 0 0.0 0.0 0.00 2.06 2.06 78 1012.4
20260903214606 28 0 0.0 0.0 0.00 2.06 2.06 77 1012.5
20260903213104 28 0 0.0 1.6 0.00 2.06 2.06 77 1012.7
20260903211602 28 0 0.0 0.0 0.00 2.06 2.06 77 1012.5
20260903204608 28 0 0.0 3.2 0.00 2.06 2.06 75 1012.4
20260903203106 28 0 0.0 1.6 0.00 2.06 2.06 74 1012.5
20260903201601 27 0 0.0 1.6 0.00 2.06 2.06 77 1012.6
20260903200101 27 0 0.0 1.6 0.00 2.06 2.06 82 1012.6
20260903194602 26 0 0.0 3.2 0.00 2.06 2.06 81 1012.7